sat.trackr.live / text

‹ back to catalog

STARLINK-5061

NORAD 54847 · 2022-177AD

PAYLOAD ACTIVE UNKNOWN

§ Identity

Operator
Country
US
Launch date
2022-12-28
Launch site
AFETR
Launch vehicle
Mass (kg)
RCS (m²)

Purposes: comms

External: N2YO · Heavens-Above · Gunter

§ Orbital elements

Epoch: 2026-05-25T01:58:45.618816Z

Period
94.27 min
Inclination
43.0046°
Eccentricity
0.0001197
Mean motion
15.27571356 rev/d
Perigee alt
482.3 km
Apogee alt
483.9 km
Semi-major
6,861.2 km
B*
-5.4080e-6
RAAN
38.8616°
Arg perigee
262.2758°
Mean anomaly
97.7958°
Rev number
18,890

§ Raw data

STARLINK-50611 54847U 22177AD  26145.08247244 -.00000411  00000+0 -54080-5 0  99952 54847  43.0046  38.8616 0001197 262.2758  97.7958 15.27571356188902

JSON: /api/v1/satellites/54847 · /tle

For live sub-satellite position, see the globe view (requires WebGL).

§ Visibility from observer

Set your observer location to see the next 7 days of passes ≥ 10°. The values pass through the URL so the page stays shareable.

No JS? Fill the form by hand. The geolocation button needs JavaScript.